Regional Weather Roundup
Issued by NWS

Home | Current Version | Previous Version | Text Only | Print | Product List | Glossary On
Versions: 1 2 3 4 5 6 7 8 9 10 11 12 13 14 15 16 17 18 19 20 21 22 23 24 25 26 27 28 29 30 31 32 33 34 35 36 37 38 39 40 41 42 43 44 45 46 47 48
000
ASUS45 KBOU 281307
RWRCO

WEATHER ROUNDUP FOR COLORADO
NATIONAL WEATHER SERVICE DENVER/BOULDER CO
600 AM MST SUN DEC 28 2014

NOTE: "FAIR" INDICATES FEW OR NO CLOUDS BELOW 12000 FEET WITH NO
SIGNIFICANT WEATHER AND/OR OBSTRUCTIONS TO VISIBILITY.

COZ001>005-013-030-031-281400-
...NORTHWEST COLORADO...

CITY           SKY/WX    TMP DP  RH WIND       PRES   REMARKS
CRAIG          CLOUDY    13   6  74 CALM      30.07F
HAYDEN         CLOUDY     9   1  72 E12       30.05S WCI  -6
MEEKER         MIX PCPN  18   8  65 CALM      30.06F
MOUNT WERNER   NOT AVBL
STEAMBOAT SPGS CLOUDY     3  -1  85 CALM      30.06S
WALDEN         MOCLDY    12   3  67 S20G25    29.92F WCI  -6
$$

COZ006>008-011-281400-
...WEST CENTRAL VALLEYS...

CITY           SKY/WX    TMP DP  RH WIND       PRES   REMARKS
GRAND JUNCTION CLOUDY    19  12  74 SE7       30.18F WCI  10
MONTROSE       CLOUDY    16   8  71 SE6       30.18F WCI   7
EAGLE          CLOUDY     9   3  78 CALM      30.14S
RIFLE          CLOUDY    15   7  70 CALM      30.18F
DELTA          CLOUDY    18  10  69 CALM      30.20F
NUCLA          CLOUDY    16   9  73 E3        30.20F
$$

COZ017>023-064>068-281400-
...SOUTHWEST COLORADO...

CITY           SKY/WX    TMP DP  RH WIND       PRES   REMARKS
DURANGO        PTCLDY    -2  -6  83 NE5       30.17S WCI -12
CORTEZ         CLOUDY    11   6  81 CALM      30.19F
PAGOSA SPRINGS PTCLDY   N/A N/A N/A CALM      30.13F
TELLURIDE      CLOUDY    14   2  57 SE7       30.06F WCI   4
WOLF CREEK PAS PTCLDY     3  -8  60 MISG      29.97F
$$

COZ009-010-012-014-032>034-037-058>063-281400-
...CENTRAL COLORADO...

CITY           SKY/WX    TMP DP  RH WIND       PRES   REMARKS
ASPEN          CLOUDY     8   1  73 SW3       30.03F
BUENA VISTA    PTCLDY     3  -8  58 CALM      29.96S
COPPER MTN     LGT SNOW   7   0  72 W12       29.87F WCI  -9
BERTHOUD PASS  NOT AVBL
COTTONWOOD PAS PTCLDY    21 -11  23 W25G45    29.89S WCI   4
GUNNISON       MOCLDY   -15 N/A N/A CALM      30.18F
KREMMLING      LGT SNOW   1  -4  78 CALM      30.06S
LEADVILLE      CLOUDY    11   1  64 N14G21    29.91F WCI  -5
SALIDA         PTCLDY     7  -3  64 N8        30.05S WCI  -6
SUNLIGHT       LGT SNOW N/A N/A N/A SW3       29.95S VSB 1
WILKERSON PASS PTCLDY    10  -4  52 W16G26    29.85S WCI  -7
$$

COZ069>075-281400-
...SAN LUIS VALLEY/SANGRE DE CRISTO MOUNTAINS...

CITY           SKY/WX    TMP DP  RH WIND       PRES   REMARKS
ALAMOSA        CLOUDY    -9 -14  78 W3        30.11S
LA VETA PASS   NOT AVBL
SAGUACHE       MOCLDY    -4  -9  77 NW18      30.09S WCI -26
$$

COZ035-036-038>040-281400-
...NORTHERN COLORADO FRONT RANGE...

CITY           SKY/WX    TMP DP  RH WIND       PRES   REMARKS
DENVER INTL AP MOCLDY    12   3  67 N3        29.91S
DMNS CITY PARK   N/A     11   7  84 NE1G8     29.92R
AURORA         MOCLDY    16   2  54 S10       29.89F WCI   3
FRONT RANGE AP MOCLDY    18   9  68 S3        29.91S
ERIE MUNI ARPT   N/A    N/A N/A N/A MISG      29.96R
BOULDER MUN AP PTCLDY    10   9  92 CALM      29.93R
CENTENNIAL     MOCLDY    10   0  63 SW8       29.88F WCI  -2
BROOMFIELD     PTCLDY    12   9  85 N7        29.91R WCI   2
FORT COLLINS   CLOUDY    12   9  85 N5        29.94F WCI   4
LONGMONT       CLOUDY     5   1  83 CALM      29.97R
$$

COZ041-046-047-076>085-087-088-281400-
...PIKES PEAK/PALMER DIVIDE AND SOUTHERN FOOTHILLS...

CITY           SKY/WX    TMP DP  RH WIND       PRES   REMARKS
COLO. SPRINGS  MOCLDY    15   6  67 W5        29.91F WCI   8
A. F. ACADEMY  MOCLDY    13   1  56 NE5       29.88F WCI   6
ELLICOTT       NOT AVBL
FALCON         MOCLDY    15   3  58 CALM      29.89F
FORT CARSON    MOCLDY    11   4  74 N5        29.91F WCI   3
LIMON          PTCLDY     2  -2  83 N3        29.93F
MONUMENT HILL  MOCLDY    16   0  48 SW9       29.86S WCI   4
TRINIDAD       PTCLDY    10   2  69 W10       29.95S WCI  -4
$$

COZ042>045-048>051-090-091-281400-
...NORTHEAST COLORADO...

CITY           SKY/WX    TMP DP  RH WIND       PRES   REMARKS
GREELEY ARPT   CLOUDY     5  -2  72 CALM      29.95R
AKRON          MOCLDY     7   4  87 W9        29.95R WCI  -7
BURLINGTON     PTCLDY    10   5  80 SW9       29.98F WCI  -3
WRAY           MOCLDY     4   0  83 W8        30.01S WCI -10
STERLING       MOCLDY     1  -4  78 CALM      30.00S
HOLYOKE        MOCLDY     5   0  78 W8        30.01R WCI  -8
FORT MORGAN    CLOUDY     4   1  85 SW6       29.97S WCI  -7
$$

COZ086-089-092>099-281400-
...SOUTHEAST COLORADO...

CITY           SKY/WX    TMP DP  RH WIND       PRES   REMARKS
PUEBLO         MOCLDY    12   8  84 CALM      29.97F
LA JUNTA       MOCLDY     9   5  84 W8        30.01S WCI  -3
LAMAR          PTCLDY     7   3  84 SW3       30.02S
SPRINGFIELD      N/A     14   8  77 W5        29.98F WCI   6
$$



USA.gov is the U.S. government's official web portal to all federal, state and local government web resources and services.